Weather History for Lynchburg, VA

Change the Weather History Date:

Friday, February 15, 2013

  Actual Average Record
Temperature  
Mean Temperature 45 °F 38 °F  
Max Temperature 63 °F 49 °F 77 °F (1989)
Min Temperature 27 °F 27 °F 1 °F (1899)
Degree Days  
Heating Degree Days 20 27  
Month to date heating degree days 405 421  
Since 1 July heating degree days 2829 3093  
Cooling Degree Days 0 0  
Month to date cooling degree days 0 0  
Year to date cooling degree days 0 0  
Moisture  
Dew Point 30 °F    
Average Humidity 57    
Maximum Humidity 85    
Minimum Humidity 29    
Precipitation  
Precipitation T in 0.10 in 1.05 in (1964)
Month to date precipitation 0.67 1.57  
Year to date precipitation 6.73 4.71  
Snow  
Snow 0.00 in - - ()
Month to date snowfall 0.5  
Since 1 July snowfall 3.3  
Snow Depth 0.00 in    
Sea Level Pressure  
Sea Level Pressure 30.00 in    
Wind  
Wind Speed 5 mph (SW)    
Max Wind Speed 20 mph    
Max Gust Speed 24 mph    
Visibility 10 miles    
Events      
T = Trace of Precipitation, MM = Missing Value Source: NWS Daily Summary

Daily Weather History Graph

Daily Weather History Graph

Search for Another Location

Airport:

Trip Planner

Search our weather history database for the weather conditions in past years. The results will help you decide how hot, cold, wet, or windy it might be!

Date:

Astronomy

Feb. 15, 2013 Rise Set
Actual Time 7:05 AM EST 5:56 PM EST
Civil Twilight 6:38 AM EST 6:23 PM EST
Nautical Twilight 6:08 AM EST 6:54 PM EST
Astronomical Twilight 5:38 AM EST 7:24 PM EST
Moon 9:49 AM EST (2/15) 11:47 PM EST (2/15)
Length of Visible Light 11h 44m
Length of Day
10h 51m
Waxing Crescent, 30% of the Moon is Illuminated
Feb 15
Waxing Crescent
Feb 17
First Quarter
Feb 25
Full
Mar 4
Last Quarter
Mar 11
New

Hourly Weather History & Observations

Time (EST) Temp. Windchill Dew Point Humidity Pressure Visibility Wind Dir Wind Speed Gust Speed Precip Events Conditions
12:54 AM 30.0 °F - 25.0 °F 82% 30.03 in 10.0 mi Calm Calm - N/A   Clear
1:54 AM 32.0 °F - 26.1 °F 79% 30.05 in 10.0 mi Calm Calm - N/A   Clear
2:54 AM 34.0 °F 31.0 °F 27.0 °F 75% 30.04 in 10.0 mi SW 3.5 mph - N/A   Clear
3:54 AM 33.1 °F - 27.0 °F 78% 30.03 in 10.0 mi Calm Calm - N/A   Partly Cloudy
4:54 AM 30.9 °F 27.5 °F 26.1 °F 82% 30.03 in 10.0 mi SSW 3.5 mph - N/A   Clear
5:54 AM 28.9 °F 22.8 °F 24.1 °F 82% 30.05 in 10.0 mi South 5.8 mph - N/A   Clear
6:54 AM 28.0 °F - 25.0 °F 88% 30.05 in 10.0 mi Calm Calm - N/A   Clear
7:54 AM 32.0 °F - 27.0 °F 82% 30.07 in 10.0 mi Calm Calm - N/A   Clear
8:54 AM 42.1 °F 38.4 °F 32.0 °F 67% 30.08 in 10.0 mi SW 5.8 mph - N/A   Clear
9:54 AM 48.0 °F - 33.1 °F 56% 30.07 in 10.0 mi SSW 8.1 mph - N/A   Clear
10:54 AM 54.0 °F - 33.1 °F 45% 30.05 in 10.0 mi Variable 3.5 mph - N/A   Clear
11:54 AM 57.9 °F - 33.1 °F 39% 30.02 in 10.0 mi South 11.5 mph - N/A   Clear
12:54 PM 60.1 °F - 30.9 °F 33% 29.99 in 10.0 mi WSW 9.2 mph 16.1 mph N/A   Partly Cloudy
1:54 PM 60.1 °F - 30.0 °F 32% 29.96 in 10.0 mi SW 6.9 mph - N/A   Scattered Clouds
2:54 PM 63.0 °F - 30.0 °F 29% 29.93 in 10.0 mi SW 12.7 mph 18.4 mph N/A   Mostly Cloudy
3:54 PM 59.0 °F - 28.9 °F 32% 29.91 in 10.0 mi SW 9.2 mph - N/A   Partly Cloudy
4:54 PM 60.1 °F - 28.9 °F 31% 29.90 in 10.0 mi SSW 9.2 mph - N/A   Clear
5:54 PM 55.9 °F - 28.9 °F 36% 29.91 in 10.0 mi SW 4.6 mph - N/A   Overcast
6:54 PM 55.9 °F - 33.1 °F 42% 29.94 in 10.0 mi WNW 8.1 mph - N/A   Overcast
7:54 PM 53.1 °F - 35.1 °F 50% 29.96 in 10.0 mi WNW 10.4 mph 19.6 mph N/A   Overcast
8:54 PM 48.0 °F - 35.1 °F 61% 29.99 in 10.0 mi NE 4.6 mph - 0.00 in   Overcast
9:54 PM 46.0 °F - 33.1 °F 61% 29.99 in 10.0 mi Calm Calm - N/A   Overcast
10:54 PM 45.0 °F 43.5 °F 33.1 °F 63% 30.00 in 10.0 mi SW 3.5 mph - N/A   Overcast
11:54 PM 44.1 °F - 30.9 °F 60% 29.98 in 10.0 mi Calm Calm - N/A   Overcast